UAL787 KBOS-KDCA

Flight info

Callsign UAL787
Flight time 1h 14m
Altitude 34000
Route SSOXS7 SSOXS Q167 ZIZZI KNUKK ATR LAFLN DEALE3
Aircraft A320/M-SDE3FGHIRWY/LB1

Departure

Time 2026-05-06 01:18
Airport Boston Logan International Airport (KBOS)

Arrival

Time 2026-05-06 02:32
Airport Ronald Reagan Washington National Airport (KDCA)
Time Latitude Longitude Altitude Speed Heading
2026-05-06 00:43 42.36090 -71.01686 30 ft 0 kts 289°
2026-05-06 01:05 42.36090 -71.01684 25 ft 2 kts 289°
2026-05-06 01:05 42.36081 -71.01652 11 ft 4 kts 294°
2026-05-06 01:05 42.36069 -71.01620 34 ft 4 kts 302°
2026-05-06 01:06 42.36052 -71.01591 31 ft 4 kts 322°
2026-05-06 01:06 42.36032 -71.01580 31 ft 2 kts 18°
2026-05-06 01:06 42.36026 -71.01583 31 ft 0 kts 19°
2026-05-06 01:10 42.36028 -71.01582 25 ft 1 kts 19°
2026-05-06 01:10 42.36041 -71.01575 29 ft 4 kts 20°
2026-05-06 01:10 42.36077 -71.01557 25 ft 7 kts 20°
2026-05-06 01:10 42.36133 -71.01529 25 ft 10 kts 20°
2026-05-06 01:11 42.36203 -71.01496 25 ft 11 kts 19°
2026-05-06 01:11 42.36261 -71.01469 27 ft 7 kts 19°
2026-05-06 01:11 42.36318 -71.01442 25 ft 10 kts 19°
2026-05-06 01:11 42.36370 -71.01396 27 ft 8 kts 67°
2026-05-06 01:12 42.36370 -71.01337 26 ft 0 kts 31°
2026-05-06 01:12 42.36381 -71.01322 28 ft 4 kts 45°
2026-05-06 01:12 42.36417 -71.01297 27 ft 8 kts 19°
2026-05-06 01:12 42.36477 -71.01268 28 ft 11 kts 19°
2026-05-06 01:13 42.36556 -71.01229 28 ft 13 kts 20°
2026-05-06 01:13 42.36641 -71.01186 28 ft 10 kts 20°
2026-05-06 01:13 42.36717 -71.01148 27 ft 12 kts 19°
2026-05-06 01:13 42.36786 -71.01152 29 ft 11 kts 336°
2026-05-06 01:14 42.36894 -71.01210 26 ft 9 kts 37°
2026-05-06 01:14 42.36954 -71.01148 26 ft 12 kts 39°
2026-05-06 01:14 42.37030 -71.01083 25 ft 14 kts 25°
2026-05-06 01:15 42.37128 -71.01019 27 ft 16 kts 26°
2026-05-06 01:15 42.37228 -71.00954 30 ft 16 kts 26°
2026-05-06 01:15 42.37337 -71.00890 26 ft 18 kts 20°
2026-05-06 01:15 42.37459 -71.00831 25 ft 20 kts 19°
2026-05-06 01:16 42.37588 -71.00769 28 ft 20 kts 20°
2026-05-06 01:16 42.37726 -71.00702 27 ft 21 kts 19°
2026-05-06 01:16 42.37814 -71.00656 28 ft 11 kts 28°
2026-05-06 01:16 42.37828 -71.00561 27 ft 12 kts 112°
2026-05-06 01:17 42.37802 -71.00481 28 ft 8 kts 131°
2026-05-06 01:17 42.37767 -71.00483 28 ft 9 kts 200°
2026-05-06 01:17 42.37636 -71.00548 28 ft 47 kts 199°
2026-05-06 01:17 42.37133 -71.00789 27 ft 104 kts 199°
2026-05-06 01:18 42.36316 -71.01190 117 ft 138 kts 200°
2026-05-06 01:18 42.35412 -71.01603 727 ft 137 kts 195°
2026-05-06 01:18 42.34431 -71.01657 1266 ft 152 kts 174°
2026-05-06 01:18 42.33457 -71.00744 1581 ft 196 kts 142°
2026-05-06 01:19 42.32616 -70.99119 1905 ft 223 kts 137°
2026-05-06 01:19 42.31714 -70.97372 2564 ft 236 kts 131°
2026-05-06 01:19 42.31211 -70.95140 3133 ft 268 kts 96°
2026-05-06 01:19 42.31450 -70.92526 3541 ft 294 kts 83°
2026-05-06 01:20 42.31855 -70.89743 4222 ft 307 kts 80°
2026-05-06 01:20 42.32307 -70.86932 5182 ft 308 kts 79°
2026-05-06 01:20 42.32776 -70.84100 6103 ft 309 kts 79°
2026-05-06 01:20 42.33017 -70.81224 6904 ft 311 kts 96°
2026-05-06 01:21 42.32664 -70.78359 7737 ft 308 kts 112°
2026-05-06 01:21 42.31856 -70.75723 8660 ft 303 kts 122°
2026-05-06 01:21 42.30921 -70.73133 9445 ft 309 kts 121°
2026-05-06 01:21 42.29816 -70.70719 10311 ft 302 kts 134°
2026-05-06 01:22 42.28346 -70.68645 10715 ft 312 kts 147°
2026-05-06 01:22 42.26457 -70.67079 10901 ft 327 kts 162°
2026-05-06 01:22 42.24257 -70.66042 11159 ft 342 kts 167°
2026-05-06 01:22 42.21984 -70.65032 11752 ft 349 kts 166°
2026-05-06 01:23 42.19673 -70.63982 12432 ft 353 kts 166°
2026-05-06 01:23 42.17338 -70.62921 13154 ft 355 kts 168°
2026-05-06 01:23 42.14954 -70.62283 13784 ft 353 kts 179°
2026-05-06 01:23 42.12515 -70.62297 14365 ft 352 kts 191°
2026-05-06 01:24 42.10133 -70.62973 14953 ft 350 kts 201°
2026-05-06 01:24 42.07782 -70.64028 15538 ft 353 kts 202°
2026-05-06 01:24 42.05476 -70.65055 16111 ft 356 kts 201°
2026-05-06 01:24 42.03108 -70.66101 16698 ft 360 kts 201°
2026-05-06 01:25 42.00688 -70.67166 17310 ft 363 kts 201°
2026-05-06 01:25 41.98309 -70.68211 17937 ft 366 kts 201°
2026-05-06 01:25 41.95869 -70.69282 18473 ft 371 kts 201°
2026-05-06 01:25 41.93416 -70.70360 19003 ft 375 kts 201°
2026-05-06 01:26 41.90926 -70.71451 19551 ft 378 kts 201°
2026-05-06 01:26 41.88416 -70.72553 20106 ft 382 kts 201°
2026-05-06 01:26 41.85878 -70.73670 20643 ft 385 kts 202°
2026-05-06 01:26 41.83380 -70.74926 21154 ft 386 kts 208°
2026-05-06 01:27 41.81018 -70.76636 21648 ft 387 kts 213°
2026-05-06 01:27 41.78659 -70.78416 22115 ft 391 kts 213°
2026-05-06 01:27 41.76292 -70.80196 22588 ft 394 kts 213°
2026-05-06 01:27 41.73902 -70.81988 23047 ft 397 kts 213°
2026-05-06 01:28 41.71479 -70.83800 23503 ft 400 kts 213°
2026-05-06 01:28 41.69040 -70.85621 23883 ft 403 kts 213°
2026-05-06 01:28 41.66580 -70.87460 24257 ft 406 kts 213°
2026-05-06 01:28 41.64118 -70.89307 24602 ft 410 kts 213°
2026-05-06 01:29 41.61620 -70.91176 24937 ft 413 kts 213°
2026-05-06 01:29 41.59101 -70.93057 25271 ft 416 kts 213°
2026-05-06 01:29 41.56631 -70.95077 25602 ft 416 kts 220°
2026-05-06 01:29 41.54444 -70.97552 25935 ft 414 kts 229°
2026-05-06 01:30 41.52590 -71.00471 26268 ft 412 kts 238°
2026-05-06 01:30 41.50992 -71.03653 26609 ft 414 kts 239°
2026-05-06 01:30 41.49389 -71.06862 26949 ft 417 kts 239°
2026-05-06 01:30 41.47781 -71.10068 27273 ft 419 kts 239°
2026-05-06 01:31 41.46157 -71.13302 27604 ft 422 kts 239°
2026-05-06 01:31 41.44519 -71.16562 27914 ft 424 kts 239°
2026-05-06 01:31 41.42891 -71.19799 28231 ft 427 kts 240°
2026-05-06 01:31 41.41242 -71.23073 28544 ft 429 kts 240°
2026-05-06 01:32 41.39551 -71.26430 28876 ft 432 kts 240°
2026-05-06 01:32 41.37892 -71.29717 29169 ft 434 kts 240°
2026-05-06 01:32 41.36204 -71.33055 29496 ft 436 kts 240°
2026-05-06 01:32 41.34525 -71.36377 29945 ft 435 kts 240°
2026-05-06 01:33 41.32841 -71.39714 30344 ft 434 kts 240°
2026-05-06 01:33 41.31159 -71.43047 30719 ft 434 kts 240°
2026-05-06 01:33 41.29477 -71.46375 31094 ft 433 kts 240°
2026-05-06 01:33 41.27796 -71.49699 31462 ft 433 kts 240°
2026-05-06 01:34 41.26112 -71.53021 31836 ft 433 kts 240°
2026-05-06 01:34 41.24428 -71.56333 32218 ft 433 kts 240°
2026-05-06 01:34 41.22745 -71.59634 32661 ft 431 kts 240°
2026-05-06 01:34 41.21075 -71.62912 33080 ft 429 kts 240°
2026-05-06 01:35 41.19406 -71.66194 33472 ft 429 kts 241°
2026-05-06 01:35 41.17738 -71.69474 33853 ft 429 kts 241°
2026-05-06 01:35 41.16061 -71.72764 33974 ft 431 kts 241°
2026-05-06 01:35 41.14384 -71.76046 33975 ft 432 kts 240°
2026-05-06 01:36 41.11006 -71.82671 33989 ft 434 kts 240°
2026-05-06 01:36 41.07640 -71.89296 33989 ft 434 kts 240°
2026-05-06 01:37 41.04269 -71.95905 33989 ft 431 kts 241°
2026-05-06 01:37 41.01567 -72.02853 33992 ft 424 kts 249°
2026-05-06 01:38 40.99081 -72.09942 33985 ft 425 kts 249°
2026-05-06 01:38 40.96600 -72.16969 33983 ft 426 kts 249°
2026-05-06 01:39 40.94081 -72.24060 33991 ft 426 kts 249°
2026-05-06 01:39 40.91309 -72.30979 34010 ft 430 kts 239°
2026-05-06 01:40 40.87235 -72.36847 34015 ft 435 kts 229°
2026-05-06 01:40 40.82939 -72.42439 33997 ft 434 kts 230°
2026-05-06 01:41 40.78506 -72.47885 33997 ft 438 kts 224°
2026-05-06 01:41 40.73809 -72.52981 33992 ft 438 kts 224°
2026-05-06 01:42 40.69092 -72.58084 33991 ft 439 kts 224°
2026-05-06 01:42 40.64474 -72.63272 33996 ft 436 kts 226°
2026-05-06 01:43 40.59947 -72.68564 34007 ft 435 kts 226°
2026-05-06 01:43 40.55428 -72.73802 34003 ft 434 kts 226°
2026-05-06 01:44 40.50912 -72.78975 34006 ft 433 kts 226°
2026-05-06 01:44 40.46378 -72.84157 33987 ft 433 kts 226°
2026-05-06 01:45 40.41825 -72.89357 33989 ft 434 kts 226°
2026-05-06 01:45 40.37272 -72.94535 33992 ft 434 kts 226°
2026-05-06 01:46 40.32711 -72.99720 34012 ft 433 kts 226°
2026-05-06 01:46 40.28166 -73.04873 33993 ft 433 kts 226°
2026-05-06 01:47 40.23605 -73.10023 33990 ft 433 kts 226°
2026-05-06 01:47 40.19056 -73.15176 33992 ft 434 kts 226°
2026-05-06 01:48 40.14485 -73.20335 34004 ft 434 kts 226°
2026-05-06 01:48 40.09922 -73.25468 33997 ft 434 kts 226°
2026-05-06 01:49 40.05342 -73.30627 33996 ft 435 kts 226°
2026-05-06 01:49 40.00822 -73.35686 34025 ft 435 kts 226°
2026-05-06 01:50 39.96237 -73.40807 34032 ft 434 kts 226°
2026-05-06 01:50 39.91660 -73.45908 34025 ft 434 kts 226°
2026-05-06 01:51 39.87074 -73.51013 34025 ft 434 kts 226°
2026-05-06 01:51 39.82497 -73.56112 34028 ft 434 kts 226°
2026-05-06 01:52 39.77913 -73.61222 34031 ft 434 kts 226°
2026-05-06 01:52 39.73337 -73.66313 34007 ft 434 kts 225°
2026-05-06 01:53 39.68776 -73.71359 34029 ft 433 kts 225°
2026-05-06 01:53 39.64208 -73.76410 34033 ft 432 kts 225°
2026-05-06 01:54 39.59636 -73.81469 34034 ft 432 kts 225°
2026-05-06 01:54 39.55079 -73.86511 34036 ft 431 kts 225°
2026-05-06 01:55 39.50515 -73.91552 34042 ft 431 kts 225°
2026-05-06 01:55 39.45951 -73.96556 34030 ft 431 kts 225°
2026-05-06 01:56 39.41367 -74.01566 34031 ft 431 kts 225°
2026-05-06 01:56 39.36799 -74.06565 34035 ft 430 kts 225°
2026-05-06 01:57 39.32234 -74.11556 34016 ft 430 kts 225°
2026-05-06 01:57 39.27673 -74.16522 34025 ft 430 kts 225°
2026-05-06 01:58 39.23105 -74.21507 34029 ft 430 kts 225°
2026-05-06 01:58 39.18539 -74.26460 34022 ft 430 kts 225°
2026-05-06 01:59 39.13958 -74.31427 34005 ft 431 kts 225°
2026-05-06 01:59 39.09409 -74.36346 33992 ft 431 kts 225°
2026-05-06 02:00 39.04812 -74.41308 34012 ft 431 kts 225°
2026-05-06 02:00 39.00227 -74.46253 34022 ft 431 kts 225°
2026-05-06 02:01 38.95939 -74.51540 34006 ft 423 kts 237°
2026-05-06 02:01 38.93154 -74.58044 34011 ft 414 kts 254°
2026-05-06 02:02 38.91684 -74.65154 34008 ft 412 kts 259°
2026-05-06 02:02 38.90297 -74.72282 33838 ft 413 kts 258°
2026-05-06 02:03 38.89596 -74.75858 33566 ft 413 kts 258°
2026-05-06 02:03 38.88902 -74.79438 33297 ft 414 kts 258°
2026-05-06 02:03 38.88220 -74.83038 33030 ft 415 kts 258°
2026-05-06 02:03 38.87548 -74.86623 32770 ft 416 kts 258°
2026-05-06 02:04 38.86873 -74.90240 32505 ft 417 kts 258°
2026-05-06 02:04 38.86194 -74.93864 32246 ft 418 kts 258°
2026-05-06 02:04 38.85507 -74.97496 31768 ft 419 kts 258°
2026-05-06 02:04 38.84813 -75.01139 30738 ft 425 kts 257°
2026-05-06 02:05 38.84104 -75.04844 29595 ft 431 kts 257°
2026-05-06 02:05 38.83387 -75.08589 28577 ft 432 kts 257°
2026-05-06 02:05 38.82679 -75.12287 28025 ft 423 kts 257°
2026-05-06 02:05 38.81984 -75.15908 27352 ft 418 kts 256°
2026-05-06 02:06 38.81295 -75.19505 26676 ft 413 kts 257°
2026-05-06 02:06 38.80859 -75.23068 26013 ft 408 kts 264°
2026-05-06 02:06 38.80646 -75.26679 25366 ft 404 kts 264°
2026-05-06 02:06 38.80431 -75.30239 24722 ft 400 kts 264°
2026-05-06 02:07 38.80212 -75.33783 24076 ft 397 kts 264°
2026-05-06 02:07 38.79992 -75.37295 23409 ft 394 kts 263°
2026-05-06 02:07 38.79773 -75.40776 22727 ft 389 kts 263°
2026-05-06 02:07 38.79557 -75.44192 22134 ft 384 kts 263°
2026-05-06 02:08 38.79340 -75.47579 21536 ft 379 kts 263°
2026-05-06 02:08 38.79122 -75.50937 20960 ft 376 kts 263°
2026-05-06 02:08 38.78907 -75.54257 20418 ft 373 kts 263°
2026-05-06 02:08 38.78694 -75.57556 19878 ft 371 kts 263°
2026-05-06 02:09 38.78482 -75.60843 19357 ft 369 kts 263°
2026-05-06 02:09 38.78272 -75.64110 18830 ft 367 kts 263°
2026-05-06 02:09 38.78062 -75.67366 18294 ft 366 kts 263°
2026-05-06 02:09 38.77854 -75.70580 17775 ft 362 kts 263°
2026-05-06 02:10 38.77645 -75.73778 17227 ft 358 kts 263°
2026-05-06 02:10 38.77436 -75.76948 16676 ft 355 kts 263°
2026-05-06 02:10 38.77229 -75.80086 16113 ft 352 kts 263°
2026-05-06 02:10 38.77023 -75.83203 15535 ft 350 kts 263°
2026-05-06 02:11 38.76820 -75.86261 14969 ft 348 kts 263°
2026-05-06 02:11 38.76612 -75.89340 14394 ft 346 kts 263°
2026-05-06 02:11 38.76407 -75.92405 13818 ft 344 kts 263°
2026-05-06 02:11 38.76204 -75.95433 13191 ft 343 kts 263°
2026-05-06 02:12 38.76001 -75.98439 12598 ft 333 kts 263°
2026-05-06 02:12 38.75802 -76.01381 12050 ft 330 kts 263°
2026-05-06 02:12 38.75604 -76.04302 11487 ft 328 kts 263°
2026-05-06 02:12 38.75522 -76.07209 10932 ft 329 kts 271°
2026-05-06 02:13 38.75791 -76.10111 10689 ft 327 kts 274°
2026-05-06 02:13 38.75979 -76.12055 10527 ft 325 kts 274°
2026-05-06 02:13 38.76248 -76.14926 10305 ft 324 kts 274°
2026-05-06 02:13 38.76510 -76.17782 10106 ft 322 kts 274°
2026-05-06 02:14 38.76767 -76.20577 10028 ft 321 kts 274°
2026-05-06 02:14 38.77028 -76.23420 10041 ft 321 kts 274°
2026-05-06 02:14 38.77288 -76.26262 10042 ft 321 kts 274°
2026-05-06 02:14 38.77549 -76.29102 10036 ft 321 kts 274°
2026-05-06 02:15 38.77812 -76.31933 10038 ft 321 kts 274°
2026-05-06 02:15 38.78077 -76.34778 10038 ft 320 kts 274°
2026-05-06 02:15 38.78335 -76.37538 10031 ft 307 kts 274°
2026-05-06 02:15 38.78587 -76.40241 10026 ft 305 kts 274°
2026-05-06 02:16 38.78835 -76.42924 10024 ft 304 kts 274°
2026-05-06 02:16 38.79080 -76.45616 10026 ft 304 kts 274°
2026-05-06 02:16 38.79324 -76.48313 10021 ft 304 kts 274°
2026-05-06 02:16 38.79567 -76.50996 10021 ft 299 kts 274°
2026-05-06 02:17 38.79798 -76.53557 10013 ft 279 kts 273°
2026-05-06 02:17 38.79941 -76.55913 10004 ft 252 kts 270°
2026-05-06 02:17 38.80018 -76.58055 10011 ft 229 kts 269°
2026-05-06 02:17 38.80072 -76.60058 10017 ft 223 kts 268°
2026-05-06 02:18 38.80121 -76.62029 10022 ft 222 kts 268°
2026-05-06 02:18 38.80174 -76.64008 10021 ft 222 kts 268°
2026-05-06 02:18 38.80230 -76.65982 10018 ft 221 kts 269°
2026-05-06 02:18 38.80288 -76.67954 10013 ft 221 kts 269°
2026-05-06 02:19 38.80346 -76.69913 10018 ft 221 kts 268°
2026-05-06 02:19 38.80403 -76.71881 10018 ft 221 kts 268°
2026-05-06 02:19 38.80463 -76.73851 10016 ft 222 kts 269°
2026-05-06 02:19 38.80529 -76.75826 10018 ft 222 kts 271°
2026-05-06 02:20 38.81531 -76.79598 10019 ft 232 kts 297°
2026-05-06 02:20 38.82526 -76.81247 10020 ft 235 kts 302°
2026-05-06 02:20 38.83536 -76.82858 10028 ft 235 kts 303°
2026-05-06 02:21 38.84556 -76.84491 10021 ft 235 kts 303°
2026-05-06 02:21 38.85574 -76.86127 10019 ft 235 kts 302°
2026-05-06 02:21 38.86595 -76.87771 9941 ft 238 kts 303°
2026-05-06 02:21 38.87622 -76.89424 9490 ft 236 kts 304°
2026-05-06 02:22 38.88770 -76.90961 9044 ft 236 kts 309°
2026-05-06 02:22 38.89915 -76.92422 8614 ft 235 kts 308°
2026-05-06 02:22 38.91070 -76.93893 8187 ft 233 kts 308°
2026-05-06 02:22 38.92221 -76.95358 7764 ft 232 kts 308°
2026-05-06 02:23 38.93358 -76.96810 7343 ft 231 kts 307°
2026-05-06 02:23 38.94495 -76.98262 6931 ft 230 kts 307°
2026-05-06 02:23 38.95636 -76.99704 6522 ft 231 kts 307°
2026-05-06 02:23 38.96775 -77.01115 6113 ft 229 kts 307°
2026-05-06 02:24 38.97892 -77.02469 6009 ft 212 kts 307°
2026-05-06 02:24 38.98948 -77.03705 5888 ft 199 kts 307°
2026-05-06 02:24 38.99983 -77.04907 5552 ft 203 kts 307°
2026-05-06 02:24 39.01030 -77.06132 5161 ft 204 kts 307°
2026-05-06 02:25 39.02076 -77.07355 4704 ft 205 kts 307°
2026-05-06 02:25 39.03131 -77.08587 4241 ft 204 kts 307°
2026-05-06 02:25 39.04179 -77.09811 3802 ft 202 kts 307°
2026-05-06 02:25 39.05047 -77.11150 3348 ft 185 kts 282°
2026-05-06 02:26 39.05099 -77.12645 3034 ft 160 kts 246°
2026-05-06 02:26 39.04518 -77.13807 3014 ft 155 kts 223°
2026-05-06 02:26 39.03658 -77.14630 3014 ft 154 kts 212°
2026-05-06 02:26 39.02712 -77.15277 3016 ft 154 kts 210°
2026-05-06 02:27 39.01760 -77.15888 3018 ft 154 kts 208°
2026-05-06 02:27 39.00750 -77.16350 3034 ft 157 kts 194°
2026-05-06 02:27 38.99634 -77.16275 2983 ft 168 kts 176°
2026-05-06 02:27 38.98497 -77.15915 2687 ft 167 kts 174°
2026-05-06 02:28 38.97402 -77.15426 2513 ft 170 kts 164°
2026-05-06 02:28 38.96369 -77.14627 2321 ft 175 kts 156°
2026-05-06 02:28 38.95353 -77.13772 2162 ft 173 kts 159°
2026-05-06 02:28 38.94326 -77.12983 2089 ft 172 kts 159°
2026-05-06 02:29 38.93313 -77.12225 1933 ft 167 kts 160°
2026-05-06 02:29 38.92319 -77.11488 1781 ft 160 kts 158°
2026-05-06 02:29 38.91421 -77.10745 1531 ft 147 kts 154°
2026-05-06 02:29 38.90722 -77.09828 1314 ft 144 kts 129°
2026-05-06 02:30 38.90303 -77.08664 935 ft 149 kts 105°
2026-05-06 02:30 38.90165 -77.07355 931 ft 148 kts 106°
2026-05-06 02:30 38.89684 -77.06239 736 ft 139 kts 150°
2026-05-06 02:30 38.88831 -77.05699 613 ft 137 kts 151°
2026-05-06 02:31 38.88146 -77.04871 478 ft 138 kts 137°
2026-05-06 02:31 38.87420 -77.04116 355 ft 133 kts 163°
2026-05-06 02:31 38.86510 -77.03912 116 ft 134 kts 179°
2026-05-06 02:31 38.85628 -77.03829 26 ft 117 kts 175°
2026-05-06 02:32 38.84960 -77.03763 23 ft 79 kts 175°
2026-05-06 02:32 38.84526 -77.03716 24 ft 33 kts 175°
2026-05-06 02:32 38.84394 -77.03776 25 ft 14 kts 258°
2026-05-06 02:32 38.84421 -77.03839 25 ft 2 kts 334°
2026-05-06 02:33 38.84422 -77.03839 25 ft 0 kts 335°
2026-05-06 02:34 38.84435 -77.03844 27 ft 5 kts 348°
2026-05-06 02:34 38.84481 -77.03849 27 ft 8 kts 355°
2026-05-06 02:34 38.84548 -77.03857 24 ft 11 kts 355°
2026-05-06 02:34 38.84632 -77.03865 25 ft 13 kts 355°
2026-05-06 02:35 38.84711 -77.03873 25 ft 10 kts 348°
2026-05-06 02:35 38.84751 -77.03933 24 ft 8 kts 311°
2026-05-06 02:35 38.84810 -77.03945 24 ft 10 kts
2026-05-06 02:35 38.84884 -77.03950 24 ft 11 kts 356°
2026-05-06 02:36 38.84957 -77.03957 24 ft 11 kts 355°
2026-05-06 02:36 38.85027 -77.03964 24 ft 10 kts 355°
2026-05-06 02:36 38.85087 -77.03971 25 ft 3 kts 355°
2026-05-06 02:36 38.85111 -77.03986 24 ft 5 kts 300°
2026-05-06 02:37 38.85108 -77.04037 26 ft 7 kts 259°
2026-05-06 02:37 38.85101 -77.04091 24 ft 5 kts 261°
2026-05-06 02:37 38.85097 -77.04117 24 ft 1 kts 260°
2026-05-06 02:37 38.85097 -77.04119 24 ft 0 kts 260°